Location: Newark
(52.5833°N, 15.0067°E)
Time: 03:13:36
(UTC+00:00)

Envisat - Visible Passes

Search period start: 29 September 2020 00:00
Search period end: 09 October 2020 00:00
Orbit: 764 x 766 km, 98.1° (Epoch: 28 September)

Date Brightness Start Highest point End Pass type
(mag) Time Alt. Az. Time Alt. Az. Time Alt. Az.
29 Sep 5.4 04:20:02 10° NNE 04:24:29 29° E 04:28:54 10° SSE visible
29 Sep 6.0 17:20:51 10° SW 17:24:43 22° W 17:28:36 10° NW visible
30 Sep 6.2 03:44:15 10° NE 03:47:14 15° E 03:50:12 10° ESE visible
01 Oct 6.4 17:48:02 10° WSW 17:50:31 13° W 17:53:00 10° NW visible
02 Oct 5.7 04:08:52 10° NE 04:13:00 24° E 04:17:07 10° SE visible
02 Oct 5.6 17:09:00 10° SSW 17:13:13 26° W 17:17:28 10° NW visible
03 Oct 6.4 03:33:33 10° ENE 03:35:42 13° E 03:37:50 10° ESE visible
04 Oct 6.2 17:35:48 10° SW 17:38:58 17° W 17:42:11 10° NW visible
05 Oct 6.0 03:57:47 10° NE 04:01:31 20° E 04:05:14 10° SE visible
05 Oct 5.2 16:57:15 10° SSW 17:01:45 31° W 17:06:17 10° NNW visible
07 Oct 5.2 04:22:41 10° NNE 04:27:14 31° E 04:31:44 10° SSE visible
07 Oct 6.0 17:23:46 10° SW 17:27:28 20° W 17:31:12 10° NW visible
08 Oct 6.2 03:46:47 10° NE 03:50:00 17° E 03:53:12 10° SE visible
08 Oct 4.8 16:45:35 10° SSW 16:50:18 38° W 16:55:02 10° NNW visible
